Flag for U.S.A. Weather past 2 weeks in Vincennes, Indiana, U.S.A.

Now
84 °F

Passing clouds.


Feels Like: 87 °F
Forecast: 65 / 84 °F
Wind: 14 mph from West

Location: Lawrenceville-Vincennes International Airport

Current Time: Jun 30, 2015 at 6:29:03 PM

Latest Report: Jun 30, 2015 at 4:53 PM


Visibility: 9 mi

Pressure: 29.82 "Hg

Humidity: 57%

Dew point: 67 °F

Location of VincennesLocation

Historic Weather in Vincennes — Graph

°F

Vincennes temperature yesterday

Maximum temperature yesterday: 80 °F (at 4:53 PM)
Minimum temperature yesterday: 67 °F (at 2:53 AM)
Average temperature yesterday: 72 °F

Past Weeks' High & Low Weather Summary

 TemperatureHumidityPressure
High89 °F (Jun 15, 5:53 PM)100% (Jun 22, 4:53 AM)30.19 "Hg (Jun 22, 4:53 AM)
Low57 °F (Jun 28, 6:53 AM)44% (Jun 27, 5:53 PM)29.73 "Hg (Jun 20, 4:53 AM)
Average75 °F80%29.95 "Hg
* Reported Jun 15 4:53 PM — Jun 30 4:53 PM, Vincennes, Weather by CustomWeather, © 2015

Note: Actual official high and low records may vary slightly from our data, if they occured in-between our weather recording intervals... More about our weather records

Advertising

Vincennes weather history for previous 24 hours

 ConditionsComfort  
Time TempWeatherWind HumidityBarometerVisibility
4:53 PM
Tue, Jun 30
84 °FPassing clouds.14 mph57%29.82 "Hg9 mi
3:53 PM83 °FSunny.10 mph59%29.83 "Hg10 mi
2:53 PM83 °FPassing clouds.14 mph61%29.83 "Hg10 mi
1:53 PM83 °FSunny.13 mph59%29.85 "Hg10 mi
12:53 PM82 °FSunny.12 mph60%29.86 "Hg10 mi
11:53 AM81 °FSunny.10 mph65%29.86 "Hg10 mi
10:53 AM78 °FSunny.7 mph74%29.86 "Hg10 mi
9:53 AM74 °FSunny.8 mph82%29.87 "Hg10 mi
8:53 AM72 °FSunny.6 mph84%29.86 "Hg10 mi
7:53 AM69 °FSunny.5 mph90%29.86 "Hg9 mi
6:53 AM67 °FClear.6 mph93%29.84 "Hg8 mi
5:53 AM66 °FClear.No wind90%29.84 "Hg10 mi
4:53 AM64 °FClear.5 mph97%29.84 "Hg8 mi
3:53 AM65 °FClear.No wind94%29.84 "Hg8 mi
2:53 AM68 °FClear.No wind90%29.85 "Hg10 mi
1:53 AM67 °FClear.No wind93%29.85 "Hg10 mi
12:53 AM68 °FClear.6 mph90%29.85 "Hg10 mi
11:53 PM
Mon, Jun 29
69 °FClear.6 mph87%29.85 "Hg10 mi
10:53 PM71 °FClear.5 mph81%29.85 "Hg10 mi
9:53 PM73 °FSunny.5 mph76%29.84 "Hg10 mi
8:53 PM75 °FSunny.6 mph69%29.83 "Hg10 mi
7:53 PM78 °FSunny.15 mph62%29.82 "Hg10 mi
6:53 PM80 °FPassing clouds.12 mph60%29.81 "Hg10 mi
Weather by CustomWeather, © 2015

See weather overviewHow to use our weather pages